loading
|
Showing default

TELKOMSAT 113BT, 58995

Orbit data source: Space-Track

TELKOMSAT 113BT, 58995 is a payload satellite owned by Telkom (ID) in GEO that was launched on Tue, 20 Feb 2024 UTC via an FALCON 9 launch vehicle from the Air Force Eastern Test Range (AFETR). Payloads include a variety of satellites, spacecraft, and rockets equipped with specific instruments for various scientific and technological missions. These include communications satellites like Starlink; space stations such as the ISS; scientific satellites like the Hubble; Earth observation satellites from companies like Planet Labs, Umbra, and HawkEye 360; GPS; miniature CubeSats for education and research; and military/defense satellites.

Next visibility unknown
Next conjunction unknown
Loading greatness...
TELKOMSAT 113BT details
Identifier
58995, 2024-035A
Orbit
GEO
Last TLE update17 hours ago
Origin
Flag of IDTelkom (ID / INDO)
ManufacturerThales Alenia
MissionOperational Commercial Communications
Bus & MotorSPACEBUS 4000B2, S400
Mass4,000 kg wet, ~2,500 kg dry
Launch date (UTC)
2024-02-20 (8 months ago)
Launch vehicle
FALCON 9
Launch site
Air Force Eastern Test Range (AFETR)
Object type
Payload
Rocket body
Debris
Shape & HBRBox + 2 Pan, 30 m
Radar Cross Section48.465 m²

Expand to show TLE details & history

TLE from 17 hours ago
0 TELKOMSAT 113BT
1 58995U 24035A   24287.85242059 -.00000360  00000-0  00000-0 0  9998
2 58995   0.0184 126.3653 0001377  83.8173 232.5700  1.00270920  2456
Epoch: 2024-10-13T20:27Z
Definitive object data (Epoch: 2024-10-13T20:27:29.138Z)
Latitude-0.02276°
Longitude112.952°
Altitude35,789.867 km
Speed3.074 km/s
True Right ascension05h 30m 50s
True Declination0° 01' 22"
Sunlit
Object was in daylight at TLE epoch
Predictive object data (real-time)
Latitude0.00168°
Longitude13.71671°
Altitude35,790.442 km
Speed3.074 km/s
Apparent Right ascension22h 38m 52s
Apparent Declination-5° 02' 32"
Sunlit
Object is in daylight
Predictive observer data (real-time)
Local Sidereal Time08:21:32
Azimuth309.332° NW
Elevation-43.416°
Doppler factor1
Orbital elements
Apogee35,793.714 km
Perigee35,782.102 km
Semi-major axis42,166.045 km
Eccentricity0.0001377
Inclination0.0184°
RAAN126.3653°
Arg. of periapsis83.8173°
True anomaly232.55747°
Mean anomaly232.57°
Eccentric anomaly232.56374°
Mean motion0.25067 °/min
BSTARUnknown
Period1436.16 mins
Authenticating...
58995 neighbors
Authenticating...
No data available
No data available
Other satellites on launch #35 in the year 2024 (2024-02-20 UTC)

TELKOMSAT 113BT Visibility forecast

Observer location: 39.9160978°, -105.1181434

TELKOMSAT 113BT is not visible in the next 10 days
Span
Click to sort rows by Start time (UTC) header in descending order
Start Az.
Max El. time (UTC)
Max El. Az.
Max El.
End time (UTC)
End Az.